When you browse on this site, cookies collect data to enhance your experience and personalize the content and advertising you see.
Visit our Privacy Policy to learn more. By continuing to use the site, you agree to this use of cookies and data.
  • In United Kingdom
  • List of Countries
  • For 7 days
  • Water Temperature
  • Weather Map
  • Weather Widgets
  • user-avatar
    Login

    Hourly Weather Ipswich

    Today, 17 November, Sunday

    Time Temperature Precipitation Wind Pressure Humidity
    00:00 +4°C° 0 mm 2 mps 755 mmHg 85%
    01:00 +4°C° 0 mm 2 mps 755 mmHg 86%
    02:00 +3°C° 0 mm 2 mps 755 mmHg 87%
    03:00 +4°C° 0 mm 1 mps 755 mmHg 88%
    04:00 +4°C° 0 mm 1 mps 755 mmHg 86%
    05:00 +5°C° 0 mm 1 mps 755 mmHg 85%
    06:00 +5°C° 0 mm 1 mps 756 mmHg 84%
    07:00 +5°C° 0 mm 1 mps 756 mmHg 83%
    08:00 +5°C° 0 mm 1 mps 756 mmHg 81%
    09:00 +6°C° 0 mm 1 mps 757 mmHg 80%
    10:00 +7°C° 0 mm 1 mps 757 mmHg 77%
    11:00 +7°C° 0 mm 1 mps 757 mmHg 75%
    12:00 +8°C° 0 mm 1 mps 757 mmHg 72%
    13:00 +8°C° 0 mm 1 mps 757 mmHg 74%
    14:00 +8°C° 0 mm 1 mps 757 mmHg 76%
    15:00 +7°C° 0 mm 2 mps 757 mmHg 78%
    16:00 +6°C° 0 mm 2 mps 758 mmHg 81%
    17:00 +5°C° 0 mm 2 mps 758 mmHg 83%
    18:00 +4°C° 0 mm 3 mps 758 mmHg 85%
    19:00 +3°C° 0 mm 3 mps 758 mmHg 87%
    20:00 +3°C° 0 mm 3 mps 758 mmHg 88%
    21:00 +3°C° 0 mm 3 mps 758 mmHg 90%
    22:00 +3°C° 0 mm 4 mps 758 mmHg 91%
    23:00 +3°C° 0 mm 4 mps 758 mmHg 91%

    Tomorrow, 18 November, Monday

    Time Temperature Precipitation Wind Pressure Humidity
    00:00 +3°C° 0 mm 4 mps 758 mmHg 92%
    01:00 +4°C° 0.1 mm 4 mps 758 mmHg 92%
    02:00 +5°C° 0.1 mm 5 mps 758 mmHg 91%
    03:00 +5°C° 0.1 mm 6 mps 758 mmHg 90%
    04:00 +5°C° 0 mm 7 mps 758 mmHg 89%
    05:00 +4°C° 0 mm 7 mps 758 mmHg 87%
    06:00 +4°C° 0 mm 8 mps 758 mmHg 85%
    07:00 +5°C° 0.6 mm 8 mps 758 mmHg 84%
    08:00 +5°C° 0.6 mm 8 mps 758 mmHg 83%
    09:00 +5°C° 0.6 mm 8 mps 758 mmHg 82%
    10:00 +6°C° 0.1 mm 9 mps 757 mmHg 79%
    11:00 +6°C° 0.1 mm 9 mps 757 mmHg 75%
    12:00 +6°C° 0.1 mm 10 mps 757 mmHg 72%
    13:00 +6°C° 0 mm 10 mps 756 mmHg 74%
    14:00 +6°C° 0 mm 9 mps 756 mmHg 75%
    15:00 +5°C° 0 mm 9 mps 756 mmHg 76%
    16:00 +5°C° 0.1 mm 9 mps 756 mmHg 75%
    17:00 +5°C° 0.1 mm 9 mps 755 mmHg 74%
    18:00 +3°C° 0.1 mm 9 mps 755 mmHg 73%
    19:00 +3°C° 0.2 mm 9 mps 755 mmHg 73%
    20:00 +3°C° 0.2 mm 9 mps 755 mmHg 74%
    21:00 +3°C° 0.2 mm 9 mps 755 mmHg 75%
    22:00 +3°C° 0.5 mm 9 mps 755 mmHg 77%
    23:00 +2°C° 0.5 mm 9 mps 754 mmHg 80%

    Day after tomorrow, 19 November, Tuesday

    Time Temperature Precipitation Wind Pressure Humidity
    00:00 +2°C° 0.5 mm 9 mps 754 mmHg 83%
    01:00 +2°C° 0.5 mm 9 mps 754 mmHg 85%
    02:00 +2°C° 0.5 mm 9 mps 753 mmHg 87%
    03:00 +2°C° 0.5 mm 9 mps 753 mmHg 89%
    04:00 +2°C° 0.2 mm 8 mps 753 mmHg 89%
    05:00 +2°C° 0.2 mm 8 mps 753 mmHg 88%
    06:00 +2°C° 0.2 mm 8 mps 753 mmHg 88%
    07:00 +3°C° 0.1 mm 7 mps 753 mmHg 88%
    08:00 +3°C° 0.1 mm 7 mps 753 mmHg 87%
    09:00 +3°C° 0.1 mm 6 mps 753 mmHg 87%
    10:00 +3°C° 0.1 mm 6 mps 752 mmHg 86%
    11:00 +4°C° 0.1 mm 6 mps 752 mmHg 86%
    12:00 +4°C° 0.1 mm 6 mps 752 mmHg 86%
    13:00 +4°C° 0 mm 6 mps 752 mmHg 85%
    14:00 +5°C° 0 mm 5 mps 752 mmHg 84%
    15:00 +5°C° 0 mm 5 mps 752 mmHg 83%
    16:00 +5°C° 0 mm 5 mps 752 mmHg 84%
    17:00 +5°C° 0 mm 5 mps 752 mmHg 86%
    18:00 +3°C° 0 mm 5 mps 752 mmHg 87%
    19:00 +3°C° 0 mm 5 mps 752 mmHg 87%
    20:00 +3°C° 0 mm 5 mps 752 mmHg 87%
    21:00 +3°C° 0 mm 5 mps 752 mmHg 87%
    22:00 +3°C° 0 mm 5 mps 752 mmHg 88%
    23:00 +2°C° 0 mm 5 mps 753 mmHg 88%

    20 November, Wednesday

    Time Temperature Precipitation Wind Pressure Humidity
    00:00 +2°C° 0 mm 5 mps 753 mmHg 89%
    01:00 +2°C° 0 mm 5 mps 752 mmHg 90%
    02:00 +1°C° 0 mm 4 mps 752 mmHg 92%
    03:00 0°C° 0 mm 4 mps 752 mmHg 93%
    04:00 +1°C° 0 mm 3 mps 752 mmHg 93%
    05:00 +1°C° 0 mm 3 mps 752 mmHg 93%
    06:00 +2°C° 0 mm 2 mps 752 mmHg 93%
    07:00 +2°C° 0 mm 2 mps 752 mmHg 90%
    08:00 +3°C° 0 mm 2 mps 753 mmHg 86%
    09:00 +3°C° 0 mm 2 mps 753 mmHg 83%
    10:00 +4°C° 0 mm 3 mps 753 mmHg 83%
    11:00 +5°C° 0 mm 4 mps 753 mmHg 84%
    12:00 +7°C° 0 mm 5 mps 753 mmHg 84%
    13:00 +7°C° 0.1 mm 5 mps 753 mmHg 86%
    14:00 +7°C° 0.1 mm 5 mps 752 mmHg 89%
    15:00 +7°C° 0.1 mm 5 mps 752 mmHg 92%
    16:00 +7°C° 0 mm 5 mps 752 mmHg 91%
    17:00 +6°C° 0 mm 5 mps 752 mmHg 90%
    18:00 +6°C° 0 mm 5 mps 752 mmHg 89%
    19:00 +6°C° 0 mm 5 mps 753 mmHg 91%
    20:00 +6°C° 0 mm 4 mps 753 mmHg 92%
    21:00 +6°C° 0 mm 4 mps 753 mmHg 93%
    22:00 +6°C° 0 mm 4 mps 753 mmHg 93%
    23:00 +6°C° 0 mm 4 mps 752 mmHg 93%

    21 November, Thursday

    Time Temperature Precipitation Wind Pressure Humidity
    00:00 +6°C° 0 mm 4 mps 752 mmHg 93%
    01:00 +7°C° 0.2 mm 5 mps 752 mmHg 93%
    02:00 +7°C° 0.2 mm 5 mps 751 mmHg 92%
    03:00 +7°C° 0.2 mm 5 mps 751 mmHg 92%
    04:00 +7°C° 0.2 mm 5 mps 751 mmHg 92%
    05:00 +7°C° 0.2 mm 5 mps 750 mmHg 93%
    06:00 +7°C° 0.2 mm 5 mps 750 mmHg 93%
    07:00 +7°C° 0.4 mm 6 mps 750 mmHg 93%
    08:00 +8°C° 0.4 mm 6 mps 750 mmHg 93%
    09:00 +8°C° 0.4 mm 7 mps 750 mmHg 93%
    10:00 +7°C° 0.4 mm 8 mps 750 mmHg 92%
    11:00 +7°C° 0.4 mm 8 mps 750 mmHg 91%
    12:00 +8°C° 0.4 mm 9 mps 750 mmHg 89%
    13:00 +7°C° 0 mm 8 mps 750 mmHg 87%
    14:00 +8°C° 0 mm 7 mps 750 mmHg 85%
    15:00 +8°C° 0 mm 6 mps 750 mmHg 83%
    16:00 +8°C° 0 mm 6 mps 749 mmHg 83%
    17:00 +8°C° 0 mm 6 mps 749 mmHg 83%
    18:00 +7°C° 0 mm 5 mps 749 mmHg 83%
    19:00 +7°C° 0 mm 6 mps 749 mmHg 83%
    20:00 +7°C° 0 mm 6 mps 749 mmHg 84%
    21:00 +7°C° 0 mm 6 mps 748 mmHg 84%
    22:00 +7°C° 0.2 mm 6 mps 748 mmHg 85%
    23:00 +7°C° 0.2 mm 6 mps 748 mmHg 85%

    22 November, Friday

    Time Temperature Precipitation Wind Pressure Humidity
    00:00 +7°C° 0.2 mm 6 mps 748 mmHg 86%
    01:00 +7°C° 0 mm 6 mps 749 mmHg 87%
    02:00 +7°C° 0 mm 6 mps 749 mmHg 88%
    03:00 +7°C° 0 mm 6 mps 749 mmHg 90%
    04:00 +7°C° 0 mm 5 mps 749 mmHg 91%
    05:00 +6°C° 0 mm 4 mps 750 mmHg 92%
    06:00 +6°C° 0 mm 4 mps 750 mmHg 93%
    07:00 +7°C° 0 mm 4 mps 750 mmHg 93%
    08:00 +7°C° 0 mm 4 mps 750 mmHg 93%
    09:00 +8°C° 0 mm 4 mps 750 mmHg 93%
    10:00 +8°C° 0.1 mm 5 mps 750 mmHg 92%
    11:00 +8°C° 0.1 mm 6 mps 749 mmHg 91%
    12:00 +9°C° 0.1 mm 7 mps 749 mmHg 89%
    13:00 +9°C° 1.4 mm 6 mps 749 mmHg 91%
    14:00 +9°C° 1.4 mm 6 mps 748 mmHg 94%
    15:00 +8°C° 1.4 mm 6 mps 748 mmHg 96%
    16:00 +9°C° 1.4 mm 7 mps 748 mmHg 94%
    17:00 +9°C° 1.4 mm 7 mps 748 mmHg 93%
    18:00 +9°C° 1.4 mm 8 mps 748 mmHg 92%
    19:00 +10°C° 0.8 mm 8 mps 748 mmHg 89%
    20:00 +10°C° 0.8 mm 9 mps 748 mmHg 86%
    21:00 +11°C° 0.8 mm 9 mps 749 mmHg 82%
    22:00 +11°C° 0 mm 9 mps 749 mmHg 80%
    23:00 +11°C° 0 mm 9 mps 749 mmHg 77%
    Show more